Flag for Moldova Weather past 2 weeks in Bălți, Moldova

Now
27 °F

Chilly.


Feels Like: 17 °F
Forecast: 26 / 34 °F
Wind: 9 mph from Northeast

Location: Baltsi-Leadoveni - The North of Moldova

Current Time: Oct 25, 2014 at 2:30:30 AM

Latest Report: Oct 25, 2014 at 2:00 AM


Visibility: 3 mi

Pressure: 30.42 "Hg

Humidity: 93%

Dew point: 25 °F

Location of BălțiLocation

Historic Weather in Bălți — Graph

°F

Bălți temperature yesterday

Maximum temperature yesterday: 32 °F (at 8:30 AM)
Minimum temperature yesterday: 27 °F (at 11:30 PM)
Average temperature yesterday: 30 °F

Past Weeks' High & Low Weather Summary

 TemperatureHumidityPressure
High73 °F (Oct 15, 3:00 PM)100% (Oct 16, 5:30 AM)30.45 "Hg (Oct 16, 5:30 AM)
Low27 °F (Oct 24, 11:30 PM)30% (Oct 13, 2:00 PM)29.71 "Hg (Oct 15, 11:00 PM)
Average54 °F70%30.03 "Hg
* Reported Oct 10 1:00 AM — Oct 25 1:30 AM, Bălți, Weather by CustomWeather, © 2014

Note: Actual official high and low records may vary slightly from our data, if they occured in-between our weather recording intervals... More about our weather records

Advertising

Bălți weather history for previous 24 hours

 ConditionsComfort  
Time TempWeatherWind HumidityBarometerVisibility
1:30 AM
Oct 25
27 °FChilly.8 mph93%30.45 "Hg4 mi
1:00 AM27 °FChilly.9 mph93%30.42 "Hg2 mi
12:30 AM27 °FChilly.14 mph93%30.42 "Hg4 mi
12:00 AM27 °FChilly.16 mph93%30.42 "Hg6 mi
11:30 PM
Oct 24
27 °FChilly.14 mph93%30.42 "Hg6 mi
11:00 PM28 °FChilly.12 mph93%30.42 "Hg2 mi
10:30 PM28 °FChilly.12 mph93%30.42 "Hg4 mi
10:00 PM28 °FChilly.10 mph93%30.39 "Hg3 mi
9:30 PM28 °FChilly.12 mph93%30.39 "Hg2 mi
9:00 PM28 °FChilly.9 mph93%30.39 "Hg5 mi
8:30 PM28 °FChilly.9 mph93%30.39 "Hg3 mi
8:00 PM28 °FChilly.10 mph93%30.36 "Hg3 mi
7:30 PM28 °FChilly.12 mph93%30.36 "Hg2 mi
7:00 PM28 °FChilly.10 mph100%30.36 "Hg2 mi
6:30 PM28 °FChilly.12 mph93%30.36 "Hg2 mi
6:00 PM28 °FChilly.12 mph93%30.33 "Hg2 mi
5:30 PM28 °FSnow flurries. Mostly cloudy.12 mph100%30.33 "Hg4 mi
5:00 PM28 °FSnow flurries. Mostly cloudy.14 mph93%30.33 "Hg5 mi
4:30 PM30 °FLight mixture of precip. Mostly cloudy.16 mph93%30.30 "HgN/A
4:00 PM30 °FLight mixture of precip. Mostly cloudy.16 mph93%30.30 "Hg6 mi
3:30 PM30 °FLight mixture of precip. Mostly cloudy.15 mph93%30.30 "Hg4 mi
3:00 PM30 °FMostly cloudy.17 mph93%30.30 "Hg4 mi
2:30 PM30 °FLight freezing rain. Mostly cloudy.17 mph93%30.27 "Hg2 mi
2:00 PM30 °FLight freezing rain. Mostly cloudy.17 mph100%30.27 "Hg2 mi
1:30 PM32 °FLight freezing rain. Ice fog.16 mph93%30.27 "Hg2 mi
1:02 PMN/ALight freezing rain.16 mphN/AN/A3 mi
12:30 PM32 °FMostly cloudy.13 mph93%30.27 "Hg5 mi
12:00 PM32 °FSprinkles. Mostly cloudy.16 mph93%30.27 "HgN/A
11:30 AM32 °FSprinkles. Mostly cloudy.17 mph93%30.24 "Hg5 mi
11:00 AM32 °FSprinkles. Mostly cloudy.20 mph93%30.24 "HgN/A
10:30 AM32 °FSunny.16 mph93%30.21 "HgN/A
10:00 AM32 °FSunny.15 mph93%30.21 "HgN/A
9:30 AM32 °FSprinkles. Ice fog.17 mph93%30.18 "Hg3 mi
9:00 AM32 °FSprinkles. Ice fog.16 mph100%30.18 "Hg3 mi
8:30 AM32 °FSprinkles. Mostly cloudy.16 mph93%30.18 "Hg4 mi
Weather by CustomWeather, © 2014

See weather overviewHow to use our weather pages